Location: *
(30.8531°N, 60.5961°E)
Time: 12:28:42
(UTC+00:00)

Daily predictions for brighter satellites

Satellite Brightness Start Highest point End
(mag) Time Altitude Azimuth Time Altitude Azimuth Time Altitude Azimuth
Cosmos 2360 Rocket 2.9 14:17:48 10° N 14:22:52 33° ENE 14:27:55 10° SE
CZ-2D R/B 4.2 14:22:21 10° SE 14:25:33 26° ENE 14:28:44 10° NNE
Cosmos 1743 2.9 14:23:14 10° S 14:27:03 77° W 14:30:53 10° N
Cosmos 1975 2.7 14:23:25 10° S 14:27:21 68° E 14:31:18 10° NNE
COSMO-SKYMED 1 4.1 14:23:32 10° N 14:27:39 42° WNW 14:31:44 10° SW
Cosmos 1300 Rocket 3.7 14:24:08 10° SSE 14:28:16 48° E 14:32:26 10° NNE
Lacrosse 4 Rocket 1.4 14:30:08 10° NNW 14:34:07 56° ENE 14:38:04 10° SE
Okean 2 3.4 14:32:25 10° N 14:36:29 61° E 14:40:32 10° SSE
SL-16 R/B 2.7 14:34:47 10° NNW 14:40:23 64° WSW 14:45:58 10° S
ISS -1.5 14:43:16 10° SE 14:43:22 10° SE 14:43:22 10° SE
Cosmos 1461 2.7 14:41:16 10° SSW 14:45:21 88° ESE 14:49:22 10° NNE
Cosmos 2184 Rocket 4.3 14:42:25 10° N 14:48:22 45° E 14:54:21 10° SSE
FREGAT/IRIS 4.1 14:49:46 16° ENE 14:49:51 16° ENE 14:51:42 10° NNE
Cosmos 1975 Rocket 4.4 14:45:39 10° NNW 14:49:55 45° W 14:54:09 10° SSW
Cosmos 1842 3.8 14:48:00 10° NNE 14:51:42 37° E 14:55:22 10° SSE
COSMOS 2455 3.7 14:46:27 10° N 14:51:45 31° ENE 14:55:49 15° ESE
HJ-1C 4.0 14:51:32 10° SE 14:54:37 36° ENE 14:57:44 10° N
CZ-4 R/B 3.1 14:51:34 10° SSW 14:55:05 35° W 14:58:39 10° NNW
ATLAS 2AS CENTAUR R/B 4.1 14:53:23 10° N 14:59:02 22° NE 15:02:31 16° E
Cosmos 2333 Rocket 3.5 14:55:52 10° N 15:00:15 22° ENE 15:02:18 18° E
ADEOS Rocket 4.2 14:54:54 10° NE 15:01:22 31° E 15:08:01 10° SSE
H-2A R/B 3.4 15:04:46 17° ENE 15:05:05 17° ENE 15:08:12 10° NNE
MONITOR-E 4.0 15:04:39 25° SE 15:05:59 49° ENE 15:08:42 10° N
Okean 1 Rocket 3.0 15:03:38 10° S 15:07:50 55° E 15:12:05 10° NNE
GEOS 3 Rocket 3.7 15:10:04 20° SE 15:13:33 58° NE 15:18:33 10° NNW
Nadezhda 1 Rocket 3.8 15:08:06 10° S 15:14:09 77° E 15:20:13 10° N
MOS 1 4.3 15:09:29 10° SSE 15:15:03 58° ENE 15:20:38 10° N
Cosmos 2237 Rocket 4.2 15:14:30 10° NE 15:15:20 10° NE 15:15:20 10° NE
USA 186 3.0 15:16:42 27° NE 15:16:42 27° NE 15:19:01 10° NNE
Cosmos 405 4.3 15:14:27 10° NNW 15:17:45 41° W 15:21:02 10° SSW
GP-B 3.1 15:14:15 10° N 15:18:41 83° W 15:23:07 10° S
Cosmos 2251 Rocket 3.5 15:13:22 10° N 15:18:42 62° ENE 15:22:29 19° SSE
Cosmos 2327 Rocket 4.4 15:14:40 10° N 15:20:51 65° E 15:26:53 10° SSE
Cosmos 1544 3.0 15:18:08 10° S 15:21:42 79° W 15:25:18 10° N
DELTA 2 R/B (1) 3.5 15:17:21 10° SW 15:22:54 67° SSE 15:25:51 28° ENE
Aureole 1 Rocket 3.3 15:18:37 10° N 15:23:09 40° ENE 15:23:37 38° E
Cosmos 1441 Rocket 3.3 15:19:38 10° S 15:23:30 77° W 15:27:19 10° N
Orbus 7S? 4.0 15:23:53 10° SW 15:27:21 76° NW 15:34:59 10° NE
SJ-6B 3.1 15:31:33 46° ENE 15:31:35 46° ENE 15:35:32 10° N
Cosmos 1939 Rocket 4.2 15:29:56 10° SSW 15:33:34 39° W 15:37:11 10° NNW
GPS 2-05 Rocket1 4.2 15:40:33 10° WNW 15:42:08 28° NW 15:42:08 28° NW
Cosmos 2333 4.1 15:37:44 10° NNW 15:43:26 82° ENE 15:45:47 37° SSE
ASTEX 1 3.5 15:38:54 10° N 15:43:47 75° W 15:48:38 10° SSW
deb Centaur AC-2 3.9 15:40:55 10° WSW 15:45:13 72° S 15:45:31 69° SE
Cosmos 1025 Rocket 4.2 15:43:22 10° NNW 15:47:24 42° W 15:51:24 10° SSW
Cosmos 2181 Rocket 4.0 15:47:19 41° SE 15:49:08 54° E 15:55:13 10° NNE
Meteor 1-15 Rocket 4.1 15:45:30 10° S 15:51:10 77° E 15:56:57 10° N
COSMOS 2428 2.6 15:45:44 10° NNW 15:51:22 64° ENE 15:52:05 58° ESE
Cosmos 1707 4.0 15:47:30 10° N 15:49:42 31° NNE 15:49:42 31° NNE
Cosmos 2341 Rocket 4.0 15:47:25 10° N 15:53:31 54° E 15:54:01 53° E
Cosmos 2322 4.1 15:49:56 10° NNW 15:55:34 61° WSW 15:58:43 26° S
Cosmos 2219 Rocket 2.0 15:50:50 10° NNW 15:56:25 69° ENE 15:56:51 66° E
Cosmos 2056 Rocket 3.4 15:55:31 10° S 16:00:55 78° ESE 16:06:21 10° NNE
Cosmos 2360 Rocket 4.2 16:02:04 10° NW 16:06:38 26° WSW 16:11:11 10° SSW
NOSS 3-4 (A) 4.4 16:00:06 10° NNW 16:06:53 42° NE 16:07:08 41° ENE
NOSS 3-4 (C) 4.4 16:00:13 10° NNW 16:07:00 41° NE 16:07:13 41° ENE
Cosmos 2219 3.6 16:02:24 10° SSW 16:08:03 62° WNW 16:13:46 10° NNE
Cosmos 2227 Rocket 4.2 16:05:27 10° SSW 16:15:41 16° NNE 16:16:44 10° NNE
SPOT 3 Rocket 3.8 16:11:10 55° SSW 16:12:02 64° WSW 16:17:09 10° NNW
Cosmos 1624 Rocket 4.0 16:08:23 10° SSW 16:13:35 75° WNW 16:18:46 10° NNE
FALCON 9 R/B 4.4 15:26:42 10° W 16:19:35 81° N 16:25:32 44° E
Cosmos 2297 Rocket 3.8 16:16:44 10° SSW 16:25:53 24° NNE 16:28:04 10° NNE
ARGOS 3.5 16:26:50 63° NW 16:26:50 63° NW 16:31:29 10° NNW
BREEZE-M DEB (TANK) 4.4 16:25:21 10° WNW 16:29:07 42° SW 16:30:09 40° SSW
SL-8 Rocket 4.4 16:30:51 10° N 16:35:26 53° N 16:35:26 53° N
Resurs 01 Rocket 4.1 16:40:48 17° NNW 16:40:48 17° NNW 16:41:48 10° NNW
COSMOS 2455 4.2 16:32:19 10° NW 16:37:33 32° WSW 16:39:01 28° SW
H-2A R/B 3.4 16:45:24 33° WNW 16:45:24 33° WNW 16:48:46 10° NNW
Cosmos 2333 Rocket 3.3 16:39:17 10° NW 16:44:21 40° W 16:44:21 40° W
ADEOS Rocket 4.4 16:39:48 10° N 16:46:44 45° WNW 16:54:00 10° SW
ATLAS 2AS CENTAUR R/B 3.0 16:43:18 10° NW 16:49:59 65° W 16:49:59 65° W
Cosmos 2237 Rocket 3.8 16:54:33 10° NNW 16:57:11 28° NNW 16:57:11 28° NNW
ATLAS 3B R/B 4.3 22:13:41 27° ENE 22:13:41 27° ENE 22:17:12 10° NE
Cosmos 1943 Rocket 4.0 22:40:03 26° NE 22:40:03 26° NE 22:42:26 10° NNE
CENTAUR R/B 3.1 22:56:42 49° NE 22:56:42 49° NE 23:01:27 10° NNE
Cosmos 2344 3.9 23:03:35 49° NNW 23:03:35 49° NNW 23:10:00 10° NNE
Atlas Centaur 2 2.6 23:14:14 84° SE 23:14:14 84° SE 23:22:02 10° E
ATLAS 3B CENTAUR R/B 4.2 23:24:39 24° S 23:24:39 24° S 23:27:01 10° SSE
Cosmos 2369 Rocket 3.0 23:27:34 41° NNW 23:27:34 41° NNW 23:31:31 10° N
Cosmos 1092 Rocket 3.9 23:29:08 61° S 23:30:15 83° E 23:36:24 10° N
ASTRO E2 4.4 23:38:18 28° ESE 23:38:18 28° ESE 23:40:43 10° E
Cosmos 1656 Rocket 3.8 23:37:52 55° S 23:39:04 74° ESE 23:44:45 10° NNE
Sakura Rocket 3.7 23:41:27 50° SSE 23:41:27 50° SSE 23:46:32 10° E
CZ-2C R/B 4.2 23:39:05 10° NE 23:43:25 30° E 23:47:49 10° SSE
SeaSat 1 2.6 23:39:24 10° NNE 23:43:44 58° NNW 23:43:44 58° NNW
Cosmos 967 Rocket 4.4 23:38:22 10° NNW 23:44:47 70° WSW 23:51:11 10° SSE
Cosmos 1125 Rocket 3.5 23:43:54 10° NNW 23:49:13 80° ENE 23:54:30 10° SSE
IDEFIX/ARIANE 42P 2.4 23:44:50 10° N 23:50:07 84° WNW 23:51:28 52° SSW
USA 215 3.2 23:43:54 10° NE 23:50:22 67° NW 23:52:14 47° WSW
H-2A R/B 2.6 23:46:34 10° NNE 23:49:49 61° NE 23:49:49 61° NE
Cosmos 1627 Rocket 4.4 23:47:30 24° S 23:51:33 89° W 23:57:56 10° N
Cosmos 1315 Rocket 4.4 23:49:56 10° SSE 23:53:41 35° E 23:57:27 10° NNE
GPS 2-04 Rocket1 2.8 23:54:47 78° ENE 23:54:47 78° ENE 23:58:41 10° ESE
